Regional Weather Roundup
Issued by NWS Cleveland, OH

Home | Current Version | Previous Version | Graphics & Text | Print | Product List | Glossary On
Versions: 1 2 3 4 5 6 7 8 9 10 11 12 13 14 15 16 17 18 19 20 21 22 23 24 25 26 27 28 29 30 31 32 33 34 35 36 37 38 39 40 41 42 43 44 45 46 47 48 49 50
000
ASUS41 KCLE 150100
RWRCLE
OHIO REGIONAL WEATHER ROUNDUP
NATIONAL WEATHER SERVICE WILMINGTON, OH
900 PM EDT SUN SEP 14 2014

NOTE: "FAIR" INDICATES FEW OR NO CLOUDS BELOW 12,000 FEET WITH NO
SIGNIFICANT WEATHER AND/OR OBSTRUCTIONS TO VISIBILITY.

OHZ001>008-015>018-024>027-034-035-043-044-150200-
   NORTHWEST OHIO

CITY           SKY/WX    TMP DP  RH WIND       PRES   REMARKS
DEFIANCE       CLEAR     54  48  80 CALM      30.22R
FINDLAY        CLEAR     58  46  64 CALM      30.21R
TOLEDO EXPRESS CLEAR     51  47  86 CALM      30.21S
TOLEDO METCALF CLEAR     55  46  71 E3        30.23R
LIMA           CLEAR     54  49  83 E3        30.22R
$$

OHZ009>014-019>023-028>033-038-089-150200-
   NORTHEAST OHIO

CITY           SKY/WX    TMP DP  RH WIND       PRES   REMARKS
CLE-HOPKINS    CLEAR     57  47  69 N3        30.25R
CLE-LAKEFRONT  CLEAR     59  46  62 N3        30.22S
CUY CO. ARPT   CLEAR     52  50  93 CALM      30.24S
LORAIN-ELYRIA  CLEAR     53  47  79 CALM      30.24R
ASHTABULA      CLEAR     48  46  93 CALM      30.24S
AKRON-CANTON   PTCLDY    52  44  74 CALM      30.23R
WOOSTER        NOT AVBL
MANSFIELD      CLEAR     53  46  77 CALM      30.22S
YOUNGSTOWN     PTCLDY    49  46  90 CALM      30.23R
$$

OHZ042-051>053-060>062-070>072-077>081-150200-
  SOUTHWEST OHIO

CITY           SKY/WX    TMP DP  RH WIND       PRES   REMARKS
CINC-COVINGTON CLEAR     60  48  64 CALM      30.21R
CINC-LUNKEN    CLEAR     56  52  86 CALM      30.22R
HAMILTON       CLEAR     54  52  93 CALM      30.22R
DAYTON         NOT AVBL
WRIGHT-PAT AFB CLEAR     59  48  67 CALM      30.21S
DAYTON GENERAL CLEAR     58  50  75 CALM      30.21S
WILMINGTON     CLEAR     56  47  71 CALM      30.22R
$$

OHZ036-037-039>041-045>050-054>059-063>069-073>076-082>088-150200-
  CENTRAL AND SOUTHEAST OHIO

CITY           SKY/WX    TMP DP  RH WIND       PRES   REMARKS
COLUMBUS       PTCLDY    59  47  64 CALM      30.22R
OSU AIRPORT    CLEAR     58  46  64 E5        30.22R
BOLTON FIELD   NOT AVBL
RICKENBACK AFB NOT AVBL
NEWARK         CLEAR     50  47  89 CALM      30.22R
MARION         CLEAR     54  46  74 CALM      30.22S
LANCASTER      CLEAR     51  48  89 CALM      30.22S
ZANESVILLE     CLEAR     55  46  71 CALM      30.23R
NEW PHILLY     CLEAR     51  48  89 CALM      30.24R
$$



USA.gov is the U.S. government's official web portal to all federal, state and local government web resources and services.